Vertical_Velocity
0 -0 0 -1 -1 1 -0 -1 -1 -2 -2 -1 -2 -1 -2 -2 -1 -1 -2 -10 -0 -2 -1 -5 -3 -1 3 1 -7 8 28 26 6 6 1 -17 3 -8 -18 -5 9 -4 11 -4 -2
0 0 -0 -0 -0 0 -2 1 -2 -1 -0 -1 -2 -1 -3 -2 -1 -3 -3 -3 -1 -3 -2 -2 3 -0 3 -1 -5 -4 -66 51 -4 18 18 -21 20 -7 41 -6 -7 -4 -3 -1 -2
0 -0 0 -0 1 1 2 0 1 -1 -2 -1 -1 -1 -3 -2 -0 -2 -0 -2 -3 -2 -2 0 -1 1 5 4 1 1 -38 -5 -7 1 -3 14 8 -1 16 29 -6 -5 -2 -0 -0
-1 -1 0 1 1 -1 -0 -0 -1 -2 -2 -1 -2 -1 -2 -0 13 -15 -4 -2 -3 -2 -2 -3 2 -2 6 1 -1 -2 3 -9 -2 1 -5 38 -4 24 -9 -13 8 -6 -3 -2 -0
-0 -1 -0 -0 -1 -1 -1 -1 -1 -0 -1 -0 0 -1 -1 1 -1 -2 -3 -0 -2 -1 -3 0 1 -0 11 -14 4 -12 8 -2 -2 -7 -1 -11 -9 19 -15 -8 2 -6 -4 -5 -2
-1 -1 -1 -1 -1 -1 -1 -1 -1 1 0 -2 -2 -1 -1 1 -10 -0 -4 1 -1 -3 -2 -0 -2 23 3 -1 -3 8 -5 -3 5 9 16 -10 4 -38 6 -6 -3 -4 -4 -4 -3
-1 -1 -1 -1 -0 0 0 0 -1 -1 -1 -1 -0 -1 -3 10 -6 -4 -2 2 -4 -1 1 1 2 -2 42 1 -11 8 -6 -6 -6 8 36 -22 10 -4 -1 -4 -2 2 -0 -4 -5
-1 -1 -2 -2 -1 -0 1 -0 -0 -0 -0 -0 -1 -2 -4 -11 -2 -2 -1 -3 -3 -1 -7 9 -3 -3 5 16 -14 -9 -8 32 58 -5 15 -10 -88 30 22 -13 1 3 -1 2 -1
-1 -1 -2 -2 -1 -1 -1 -1 -0 -0 -1 -0 0 -0 11 3 -3 2 -3 -1 0 1 -2 -7 -3 -8 28 -19 15 -2 4 33 7 -2 18 -17 -5 40 11 4 0 -2 0 1 0
-1 -1 -2 -2 -1 -1 -1 -1 -0 -0 -0 -0 0 -3 -4 1 -0 -3 0 -1 1 -2 -1 -3 -7 1 -14 24 -2 15 18 -22 36 -5 -1 -8 -1 5 28 -4 4 -4 1 -2 -2
-1 0 -0 -1 -0 -0 -0 -1 -0 -5 -1 2 3 0 -2 -1 0 1 -0 -0 -1 2 -3 -8 12 -7 -9 -11 4 1 9 8 4 14 -11 -10 -4 -2 -1 32 -13 -0 -14 -2 -1
-1 -1 -1 -1 0 0 -1 -1 1 -2 -1 -2 -2 -4 -4 -2 1 -1 -1 -4 1 -4 -2 28 -13 1 5 9 -2 16 -3 -11 -6 -15 2 -3 -9 5 9 14 7 11 -0 -7 -0
-1 -1 -2 -1 0 0 -1 -2 -1 -1 -3 2 -2 -0 -0 -1 -2 3 -3 -2 -3 1 2 -3 -2 -6 1 2 0 -1 3 0 17 1 -18 -8 -11 -0 7 -7 -13 -10 -5 6 -4
-2 -1 -1 -1 -0 -0 -2 -0 -1 -1 -3 0 -5 -3 -5 -1 -10 2 -6 2 13 -5 -3 5 -10 6 6 -0 9 3 -9 -12 3 -9 7 8 -2 -67 11 -3 3 11 -6 7 -8
-1 -1 -1 -1 1 -1 -1 -0 -1 0 10 -1 -5 -14 2 -11 4 -10 -2 9 1 -3 19 -31 -2 17 -6 -3 -6 -19 4 27 -16 4 4 -1 9 12 5 19 10 -10 -6 -1 -1
-2 -2 -1 -0 -0 -1 -1 -0 -1 1 11 -4 3 -3 -0 -2 -1 21 -4 2 2 9 -0 -8 14 -4 -1 -4 -2 0 2 16 -2 -8 14 -11 3 -11 -16 5 -5 -4 -10 -1 -2
-1 -1 -1 -0 -2 -1 1 -1 5 7 -14 0 6 -10 -5 14 -2 -1 -4 -2 -2 9 3 -3 -16 -10 -7 3 10 11 20 0 13 15 -14 15 6 36 -18 7 -11 14 -1 -5 -4
-1 -1 -1 -0 -1 -1 0 -3 11 -2 7 -20 -17 0 -7 -8 -3 -3 11 4 -8 14 15 -8 22 0 -10 -13 -1 -16 6 -1 -4 -0 -14 24 -4 -27 14 4 -14 -4 8 -4 -3
-1 -1 -1 -1 -1 -1 -1 2 19 3 -2 2 0 -2 7 -2 3 -1 -8 6 4 -23 10 17 -7 32 -4 -2 -5 -13 0 -18 13 2 18 -29 18 -18 16 -15 -13 11 9 -2 6
-1 -3 2 -2 -1 -1 -3 -3 -4 -11 -10 -0 0 -14 19 -3 -7 10 12 -14 0 9 -6 -18 -3 17 -9 -2 -4 -2 15 17 -7 8 -1 -4 -6 -2 15 -5 25 11 19 -3 15
-3 2 -2 -2 -3 -2 -4 33 -10 -1 -2 5 6 2 -14 1 -7 27 -12 8 -21 10 -1 -9 26 -18 27 -9 -2 2 -9 8 14 7 3 -1 -21 -5 -16 -12 -5 5 -7 20 9
-5 38 -3 -3 -3 2 13 10 -16 -5 -2 -5 -6 -13 -5 27 -4 -12 5 -20 26 -11 8 -25 1 0 4 -20 -5 1 -5 0 11 -17 -10 3 13 -2 1 -7 21 10 15 -11 -9
-3 11 -5 -4 11 25 2 -10 -8 4 -2 1 -3 -4 18 3 4 -17 7 5 -13 -9 -11 0 -20 1 3 16 -2 7 -9 -5 -5 14 -8 9 -27 -17 37 -14 -19 -18 5 11 -6
-6 20 -12 -7 -8 -11 5 -2 4 -4 -8 3 -3 6 2 -4 -14 1 -9 11 -16 -11 -13 -20 5 3 -11 -20 16 -4 -13 2 2 20 -15 -11 -0 -5 -17 -15 -8 -1 -11 18 -9
-4 10 -7 33 17 0 6 -2 -3 5 -3 6 1 -10 2 2 1 13 -29 9 -14 -5 -4 -0 1 14 -6 -10 18 13 2 -14 3 -11 23 -15 9 -10 1 21 20 -20 -13 -8 0
-4 -3 0 -6 -3 -5 1 -7 4 -3 -8 12 -13 21 -5 6 -0 3 4 35 -6 -53 46 -3 -11 -1 3 -6 2 -2 30 11 -10 5 -8 3 16 38 -31 -12 -10 4 -4 0 3
-2 -1 -1 -3 -5 6 9 7 -8 9 -11 -17 4 1 6 15 14 8 26 -51 36 34 23 10 21 12 -16 4 2 14 -16 0 8 3 -11 1 -27 6 11 13 0 -5 -0 -1 0
Height
3149 3149 3149 3150 3150 3151 3151 3151 3152 3154 3156 3158 3160 3161 3163 3164 3165 3167 3167 3168 3170 3171 3172 3172 3173 3174 3174 3176 3176 3173 3172 3169 3173 3174 3175 3177 3175 3178 3178 3177 3178 3175 3176 3171 3171
3147 3147 3148 3148 3149 3150 3150 3150 3151 3152 3155 3157 3159 3160 3162 3164 3165 3166 3168 3168 3169 3171 3173 3174 3178 3179 3179 3180 3178 3175 3173 3170 3174 3176 3176 3177 3178 3178 3175 3178 3177 3175 3173 3172 3172
3146 3147 3147 3147 3147 3148 3149 3150 3151 3151 3153 3155 3157 3159 3161 3163 3166 3167 3167 3168 3170 3172 3174 3175 3179 3181 3180 3182 3181 3178 3176 3176 3178 3178 3178 3178 3179 3179 3178 3176 3178 3177 3174 3173 3173
3145 3145 3145 3146 3146 3147 3148 3149 3149 3151 3151 3153 3155 3158 3160 3162 3170 3163 3166 3168 3170 3172 3174 3176 3178 3181 3181 3181 3180 3180 3180 3180 3180 3181 3180 3176 3178 3179 3179 3179 3180 3176 3175 3175 3175
3143 3144 3144 3144 3144 3145 3146 3147 3149 3149 3150 3152 3153 3156 3159 3161 3162 3161 3164 3167 3169 3172 3174 3176 3180 3182 3182 3181 3181 3180 3179 3180 3181 3181 3180 3180 3180 3179 3180 3179 3180 3177 3176 3176 3175
3141 3142 3142 3142 3142 3143 3144 3145 3146 3148 3149 3151 3152 3154 3156 3159 3158 3160 3163 3166 3168 3171 3174 3176 3180 3182 3180 3180 3180 3179 3180 3180 3180 3180 3180 3179 3178 3178 3177 3178 3177 3176 3176 3177 3177
3140 3140 3140 3141 3141 3142 3143 3144 3145 3146 3147 3148 3150 3152 3154 3158 3156 3159 3161 3165 3167 3170 3174 3177 3178 3180 3181 3181 3179 3179 3179 3178 3177 3178 3178 3178 3177 3175 3175 3177 3177 3176 3175 3176 3177
3138 3138 3139 3139 3140 3141 3141 3142 3143 3144 3145 3146 3147 3149 3150 3151 3154 3157 3160 3162 3166 3169 3171 3174 3175 3177 3179 3180 3179 3179 3177 3173 3175 3177 3176 3177 3181 3174 3169 3174 3176 3177 3174 3175 3175
3136 3136 3137 3138 3139 3139 3140 3140 3141 3142 3143 3144 3146 3147 3151 3149 3152 3155 3158 3161 3165 3167 3169 3171 3174 3177 3178 3178 3175 3174 3170 3172 3174 3176 3176 3176 3174 3174 3172 3173 3175 3175 3174 3174 3173
3134 3134 3135 3136 3137 3137 3138 3139 3140 3141 3142 3143 3144 3148 3147 3148 3149 3152 3156 3159 3165 3167 3168 3170 3173 3174 3174 3173 3167 3167 3166 3169 3170 3175 3175 3174 3173 3172 3171 3172 3174 3173 3173 3171 3170
3131 3132 3133 3133 3134 3135 3137 3138 3141 3141 3138 3141 3142 3143 3143 3144 3146 3149 3153 3157 3161 3165 3166 3169 3171 3168 3169 3169 3167 3169 3167 3167 3169 3171 3174 3173 3171 3170 3169 3169 3170 3172 3169 3169 3167
3129 3130 3130 3131 3132 3133 3134 3135 3136 3138 3137 3136 3137 3138 3139 3141 3145 3147 3150 3154 3158 3160 3164 3166 3163 3166 3167 3167 3167 3167 3169 3169 3169 3170 3172 3171 3169 3167 3166 3166 3167 3167 3168 3167 3166
3127 3128 3128 3129 3130 3131 3132 3133 3134 3135 3135 3136 3134 3136 3139 3140 3142 3146 3146 3151 3155 3158 3159 3159 3160 3162 3163 3164 3165 3165 3167 3167 3166 3168 3168 3166 3163 3162 3161 3162 3164 3164 3164 3164 3163
3126 3126 3126 3127 3130 3129 3130 3131 3132 3134 3135 3134 3132 3133 3133 3137 3139 3143 3143 3150 3153 3153 3156 3156 3158 3159 3160 3160 3162 3163 3165 3165 3165 3168 3161 3160 3156 3160 3158 3159 3158 3159 3160 3162 3162
3124 3124 3125 3125 3127 3127 3129 3129 3131 3133 3127 3131 3130 3127 3132 3136 3138 3138 3141 3146 3148 3150 3153 3151 3154 3155 3157 3158 3160 3160 3161 3161 3165 3165 3161 3155 3154 3146 3154 3155 3155 3157 3158 3159 3161
3122 3123 3123 3123 3124 3126 3126 3128 3131 3135 3124 3128 3128 3127 3130 3132 3136 3138 3138 3142 3146 3147 3148 3148 3151 3152 3154 3155 3157 3159 3160 3160 3163 3163 3156 3150 3150 3148 3149 3154 3155 3155 3156 3158 3160
3120 3120 3121 3121 3123 3123 3125 3128 3133 3126 3125 3126 3127 3128 3130 3131 3133 3134 3135 3137 3140 3143 3142 3145 3145 3147 3151 3153 3154 3156 3157 3156 3156 3152 3145 3142 3144 3142 3151 3150 3153 3155 3156 3157 3159
3119 3119 3119 3119 3121 3122 3125 3129 3128 3122 3124 3124 3126 3127 3128 3129 3130 3131 3133 3134 3136 3138 3137 3138 3138 3142 3144 3145 3148 3150 3152 3150 3148 3140 3135 3137 3141 3143 3147 3148 3151 3153 3154 3155 3157
3118 3118 3118 3119 3120 3121 3125 3128 3122 3122 3123 3125 3125 3124 3124 3126 3127 3127 3129 3129 3131 3134 3135 3130 3130 3134 3138 3142 3146 3145 3146 3149 3144 3137 3131 3142 3139 3140 3144 3148 3149 3150 3151 3153 3155
3117 3117 3118 3118 3119 3121 3125 3123 3122 3122 3122 3123 3123 3122 3119 3120 3124 3124 3124 3125 3126 3129 3131 3131 3130 3130 3134 3139 3139 3139 3143 3145 3143 3136 3133 3128 3135 3135 3139 3145 3146 3148 3149 3150 3152
3117 3120 3119 3118 3119 3120 3123 3123 3121 3121 3121 3123 3122 3121 3121 3120 3121 3119 3121 3122 3123 3125 3127 3130 3129 3129 3129 3130 3132 3136 3136 3136 3137 3136 3129 3128 3128 3129 3137 3143 3145 3146 3148 3148 3150
3117 3124 3119 3118 3121 3122 3121 3120 3118 3119 3119 3119 3120 3119 3120 3119 3120 3119 3118 3119 3119 3121 3123 3126 3125 3123 3123 3126 3128 3129 3131 3133 3132 3132 3129 3125 3126 3128 3134 3139 3142 3144 3146 3145 3148
3118 3121 3116 3117 3119 3119 3119 3117 3116 3117 3117 3118 3117 3118 3118 3118 3119 3116 3115 3116 3117 3119 3119 3121 3121 3120 3118 3121 3120 3121 3124 3127 3127 3127 3123 3123 3125 3131 3131 3136 3140 3143 3144 3144 3145
3116 3120 3117 3114 3116 3117 3117 3116 3116 3114 3114 3114 3115 3116 3116 3116 3116 3114 3114 3114 3113 3114 3113 3115 3114 3114 3112 3112 3113 3117 3121 3122 3123 3120 3119 3120 3121 3125 3128 3133 3137 3139 3141 3142 3142
3116 3119 3116 3117 3116 3116 3116 3115 3114 3113 3112 3112 3112 3112 3113 3113 3111 3110 3111 3109 3108 3109 3109 3112 3109 3109 3109 3109 3108 3109 3111 3117 3116 3116 3115 3115 3118 3122 3125 3130 3131 3135 3137 3138 3140
3114 3114 3114 3113 3113 3112 3112 3112 3111 3110 3111 3109 3109 3108 3109 3109 3108 3107 3105 3104 3100 3102 3110 3107 3108 3106 3105 3106 3106 3104 3103 3106 3110 3112 3114 3113 3114 3119 3122 3125 3130 3132 3134 3134 3135
3111 3110 3109 3110 3110 3111 3110 3109 3108 3107 3107 3106 3106 3107 3106 3108 3106 3104 3104 3097 3085 3098 3101 3102 3102 3102 3100 3102 3103 3101 3101 3103 3104 3107 3111 3111 3114 3117 3120 3122 3126 3127 3128 3128 3129